Regional Weather Roundup
Issued by NWS

Home | Current Version | Previous Version | Text Only | Print | Product List | Glossary On
Versions: 1 2 3 4 5 6 7 8 9 10 11 12 13 14 15 16 17 18 19 20 21 22 23 24 25 26 27 28 29 30 31 32 33 34 35 36 37 38 39 40 41 42 43 44 45 46 47 48 49 50
000
ASUS43 KDTX 211510
RWRMI
MICHIGAN HOURLY REGIONAL WEATHER ROUNDUP
NATIONAL WEATHER SERVICE DETROIT/PONTIAC MI
1100 AM EDT TUE OCT 21 2014

NOTE: "FAIR" INDICATES FEW OR NO CLOUDS BELOW 12,000 FEET WITH NO
SIGNIFICANT WEATHER AND/OR OBSTRUCTION TO VISIBILITY.

MIZ047>049-052>055-059>063-066>070-074>076-081>083-211600-
SOUTHEAST LOWER MICHIGAN

CITY           SKY/WX    TMP DP  RH WIND       PRES   REMARKS
ADRIAN         CLOUDY    48  43  82 N16       30.04R
ALMA           CLOUDY    46  39  77 N8        30.10R
ANN ARBOR      LGT RAIN  48  42  80 N9G21     30.03R
BAD AXE        CLOUDY    44  40  88 N12G18    30.05R
DETROIT CITY   CLOUDY    49  39  68 N16G24    30.02R
DETROIT        LGT RAIN  47  42  83 NW9       30.03R
FLINT          CLOUDY    47  40  76 N16G25    30.07R
GROSSE ILE     CLOUDY    48  43  81 N12       30.00R
HILLSDALE      CLOUDY    47  44  88 N10G18    30.04R
HOWELL         CLOUDY    45  41  87 N9        30.05R

CITY           SKY/WX    TMP DP  RH WIND       PRES   REMARKS
JACKSON        CLOUDY    46  42  86 N13G21    30.05R
LAMBERTVILLE   DRIZZLE   50  45  81 N5        30.02R
LANSING        CLOUDY    46  39  76 N14       30.08R
LAPEER         NOT AVBL
MASON          CLOUDY    45  42  89 N10       30.06R
MONROE         DRIZZLE   48  45  87 N14       30.00R
MT. CLEMENS    CLOUDY    47  42  84 N18       29.99R
PONTIAC        CLOUDY    45  39  79 N12G20    30.02R
PORT HOPE        N/A     47  40  76 N20G28    30.03R
PORT HURON     CLOUDY    45  41  87 NW8G17    29.99S
TRI CITIES     LGT RAIN  47  38  71 N13       30.10R
YPSILANTI      CLOUDY    52  41  66 N18       30.03R
$$
MIZ043>046-050>051-056>058-064>065-071>073-077>080-211600-
SOUTHWEST LOWER MICHIGAN

CITY           SKY/WX    TMP DP  RH WIND       PRES   REMARKS
BATTLE CREEK   CLOUDY    48  43  82 N13       30.08R
BENTON HARBOR  CLOUDY    49  45  86 VRB5      30.10R
BIG RAPIDS     CLOUDY    44  41  89 NE10      30.12R
COLDWATER      CLOUDY    48  45  90 N7        30.06R
HOLLAND        PTSUNNY   52  41  66 N10G18    30.11R
GRAND RAPIDS   CLOUDY    49  41  74 N10G20    30.10R
KALAMAZOO      CLOUDY    48  45  87 N10       30.09R FOG
MARSHALL       CLOUDY    46  41  84 N5        30.06R
MUSKEGON       CLOUDY    48  40  73 N10       30.14R
$$
MIZ016>042-211600-
NORTHERN LOWER MICHIGAN

CITY           SKY/WX    TMP DP  RH WIND       PRES   REMARKS
ALPENA         CLOUDY    43  33  68 NE15G24   30.13S
BEAVER ISLAND  PTSUNNY   44  36  72 NE7       30.20R
BELLAIRE       PTSUNNY   45  35  66 N5        30.16S
CADILLAC       CLOUDY    40  38  91 N6        30.12R
CHARLEVOIX     SUNNY     46  35  66 NE13      30.20R
FRANKFORT      CLOUDY    47  36  65 NE9       30.17R
GAYLORD        PTSUNNY   41  31  67 NE10      30.13R
GRAYLING       CLOUDY    42  35  74 N9G16     30.14R
HARBOR SPRINGS MOSUNNY   45  32  60 NE12      30.18R
HOUGHTON LAKE  CLOUDY    41  35  79 N10       30.13R
MANISTEE       CLOUDY    46  36  66 NE8       30.16R
OSCODA         CLOUDY    43  36  74 N17G28    30.09R
PELLSTON       SUNNY     44  31  60 NE13      30.19R
TRAVERSE CITY  CLOUDY    46  34  62 NE8       30.15R
$$
MIZ007>008-015-211600-
EASTERN UPPER MICHIGAN

CITY           SKY/WX    TMP DP  RH WIND       PRES   REMARKS
KINROSS        SUNNY     39  28  65 NE14      30.20R
MACKINAC ISLAN MOSUNNY   42  32  68 NE12      30.19R
NEWBERRY       MOSUNNY   38  32  78 NE9       30.21R
S. S. MARIE    SUNNY     40  26  57 NE8       30.21R
$$
MIZ004>006-011>014-085-211600-
CENTRAL UPPER MICHIGAN

CITY           SKY/WX    TMP DP  RH WIND       PRES   REMARKS
MANISTIQUE     SUNNY     43  36  74 N12       30.21R
ESCANABA       MOSUNNY   45  34  65 N12       30.23R
MENOMINEE      MOSUNNY   45  34  65 N14       30.22R
SAWYER-GWINN   CLOUDY    41  34  75 N14       30.24R
$$
MIZ001>003-009>011-084-211600-
WESTERN UPPER MICHIGAN

CITY           SKY/WX    TMP DP  RH WIND       PRES   REMARKS
IRON MOUNTAIN  CLOUDY    41  32  70 N10       30.24R
HOUGHTON       SUNNY     41  30  65 CALM      30.27R
COPPER HARBOR    N/A     42  34  73 E3        30.29R
IRONWOOD       CLOUDY    39  34  81 E9        30.23S
$$

ABBREVIATIONS USED IN REMARKS
   TC - TEMPERATURE IN CELSIUS
  WCI - WIND CHILL INDEX
   HX - HEAT INDEX
  VSB - VISIBILITY




USA.gov is the U.S. government's official web portal to all federal, state and local government web resources and services.